Idaho Falls Regional Airport
KIDA : now visible

Airfield :











YOU CAN JOIN US ON...

 
LOGIN :

Register | Disclaimer

   EN    FR    IT 

 









Legend :    VFR   Marginal VFR   IFR   Intensive IFR   Very Intensive IFR
Visi :
Ceiling :
>= 8 km
>= 3000ft
5 to 8 km
1000 to 3000 ft
1500m to 5 km
500 to 1000 ft
800 to 1500m
200 to 500 ft
< 800m
< 200 ft
Symbols :   Thunderstorms  Fog  Heavy snow  Heavy precipitations  Wind > 20 kt






- Airport Elevation : 4744 ft
- IATA code : IDA


KIDA - Idaho Falls Regional

CURRENT METAR :
  • 230553Z 36008KT 10SM CLR M07/M08 A2973 RMK AO2 SLP109 I1000 I6000 T10721078 11022 21072 56011

EXPIRED METARs :
  • 230453Z 01007KT 10SM CLR M07/M07 A2974 RMK AO2 SLP111 I1000 T10671072
  • 230353Z 02004KT 8SM CLR M06/M07 A2975 RMK AO2 SLP113 T10561067

TAF KIDA
Valid from the 23 at 06:00 until the 24 at 06:00 UTC


230521Z 2306/2406 01008KT P6SM BKN050 OVC110
FM231200 02008KT P6SM VCSH FEW008 BKN040
FM231500 36008KT P6SM SCT110
FM240400 22006KT 1SM BR VCFG BKN003
KZLC FIR / North America



MET'MAP, your aeronautical weather chart ! - Copyright ORBIFLY December 2007 - Disclaimer

ORBIFLY MET'MAP TEAM :

Programming & Development : Alexandra Zaïnal
Concept & original design : Baudouin d'Aumeries
Assistance for programming : Marc-Olivier Méhu
Technical & hardware support : Manuel Goepfert

Contact : metmap@orbifly.com




SOURCES & CREDITS :

   NOAA       Earth
Advisory